DELTA 1 DEB, 10866

Orbit data source: Space-Track

DELTA 1 DEB, 10866 is space debris in SSO originally from a launch on Thu, 29 Jul 1976 UTC launched from the Air Force Western Test Range (AFWTR). Debris objects in space refer to the collection of defunct objects orbiting the Earth. Examples of debris include non-operational satellites, rocket bodies, and fragments generated from explosions, collisions, or faulty payload assembly.

Loading next visibility...
Identifier
10866, 1976-077CU
Orbit
SSO
Country
Flag of USUS
Related business
Manufacturer
Unknown
Mission
Spacecraft
Bus & Motor
Unknown
Mass
Unknown
Launch date (UTC)
1976-07-29 (49 years ago)
Launch vehicle
Unknown
Launch site
Air Force Western Test Range (AFWTR)
Object type
Payload
Rocket body
Debris
Shape & HBR
Unknown shape, 0.1 m
Radar Cross Section
Medium (>0.1 m² and <1 m²)

Expand to show TLE details & history
Last TLE update: 8 hours ago

TLE from 8 hours ago
0 DELTA 1 DEB
1 10866U 76077CU  25351.79914738  .00000032  00000-0  64468-3 0  9998
2 10866 102.7054 309.4037 0149469  21.8483  45.4283 12.30625283217645
Epoch: 2025-12-17T19:10Z
TLE epoch observation values (Epoch: 2025-12-17T19:10:46.333Z)
Latitude
65.27674°
Longitude
-94.11328°
Altitude
1,475.424 km
Speed
7.168 km/s
True Right ascension
18h 40m 58s
True Declination
65° 09' 28"
Sunlit
Object was in daylight at epoch
Visualization orbit readout
Latitude
Unknown
Longitude
Unknown
Altitude
Unknown
Speed
Unknown
Apparent Right ascension
Unknown
Apparent Declination
Unknown
Sunlit
N/A
Visualization observer readout
Local Sidereal Time
01:58:56
Azimuth
Unknown
Elevation
Unknown
Doppler factor
Unknown
Orbital elements
Apogee altitude
1,662.639 km
Perigee altitude
1,425.81 km
Semi-major axis
7,922.362 km
Eccentricity
0.01495
Inclination
102.7054°
RAAN
309.4037°
Arg. of periapsis
21.8483°
True anomaly
46.66455°
Mean anomaly
45.4283°
Eccentric anomaly
46.0448°
Mean motion
3.07795 °/min
Orbital period
116.96 mins
BSTAR
0.00064468
Loading maneuver chart data...
Computing Atmospheric mass density...
Loading historical data...
Loading historical data...
Loading historical data...
Loading historical data...
Loading historical data...
Loading historical data...
Loading historical data...

Documentation

Showing up to 5 results
|